Location: Shepherdstown, WV
(39.4326°N, 77.8042°W)
Time: 06:06:47
(UTC-04:00)

Tiros 1 despin weight - Pass Details

Date: 30 July 2021
Orbit: 594 x 641 km, 48.2° (Epoch: 16 September)

Event Time Altitude Azimuth Distance (km) Brightness Sun altitude
Rises 21:18:41 0° 298° (WNW) 2,934 ? -9.8°
Reaches altitude 10° 21:21:05 10° 293° (WNW) 2,017 ? -10.2°
Maximum altitude 21:25:33 48° 219° (SW) 817 ? -10.9°
Enters shadow 21:29:14 14° 148° (SSE) 1,721 ? -11.5°
